Regional Weather Roundup
Issued by NWS

Home | Current Version | Previous Version | Graphics & Text | Print | Product List | Glossary On
Versions: 1 2 3 4 5 6 7 8 9 10 11 12 13 14 15 16 17 18 19 20 21 22 23 24 25 26 27 28 29 30 31 32 33 34 35 36 37 38 39 40 41 42 43 44 45 46 47 48 49 50
000
ASUS43 KMPX 310001
RWRMN
WEATHER ROUNDUP FOR MINNESOTA
NATIONAL WEATHER SERVICE TWIN CITIES/CHANHASSEN MN
600 PM CST FRI JAN 30 2015


NOTE: "FAIR" INDICATES FEW OR NO CLOUDS BELOW 12,000 FEET WITH NO
SIGNIFICANT WEATHER AND/OR OBSTRUCTIONS TO VISIBILITY. N/A MEANS
CURRENT SKY AND/OR WEATHER CONDITIONS ARE NOT AVAILABLE.

MNZ060>063-068>070-310100-
   Twin Cities Metro

CITY           SKY/WX    TMP DP  RH WIND       PRES   REMARKS
TWIN CITIES    PTCLDY    26  16  65 S9        30.25F WCI  17
6HR MIN TEMP:  19; 6HR MAX TEMP:  27;

ST PAUL        CLEAR     25  17  72 SE7       30.27F WCI  17
CRYSTAL        CLEAR     26  16  65 S10       30.22F WCI  16
BLAINE         PTCLDY    27  18  69 S8        30.24F WCI  18
LAKEVILLE      CLEAR     25  18  74 S7        30.25F WCI  17
EDEN PRAIRIE   CLEAR     26  17  68 S12       30.23F WCI  16
6HR MIN TEMP:  20; 6HR MAX TEMP:  28;

SOUTH ST PAUL  CLEAR     26  17  68 S5        30.26F WCI  21
LAKE ELMO      FAIR      25  18  74 S8        30.27F WCI  16
$$
MNZ001>005-007-008-013>017-022>024-027-028-310100-
   Northwest Minnesota

CITY           SKY/WX    TMP DP  RH WIND       PRES   REMARKS
BEMIDJI        CLOUDY    21  15  76 SE3       30.12S
HALLOCK        CLOUDY    25  19  80 CALM      30.13R
ROSEAU         CLOUDY    21  16  79 CALM      30.12S
WARROAD        CLOUDY    19  14  79 CALM      30.13R
THIEF RVR FALL CLOUDY    25  19  80 S6        30.12R WCI  18
CROOKSTON      CLEAR     25  21  86 S7        30.12S WCI  17
FOSSTON        CLOUDY    21  18  86 S9        30.12S WCI  11
DETROIT LAKES  CLOUDY    27  21  80 S10       30.13F WCI  17
MOORHEAD       CLEAR     28  27  93 S10       30.14S WCI  19
PARK RAPIDS    CLOUDY    24  17  74 S10       30.13F WCI  14
MAHNOMEN       CLOUDY    24  20  83 S6        30.12S WCI  17
$$
MNZ006-009>011-018-025>026-310100-
   North Central Minnesota

CITY           SKY/WX    TMP DP  RH WIND       PRES   REMARKS
BAUDETTE       CLOUDY    17   9  70 S3        30.11F
FLAG ISLAND    FLURRIES  12   9  85 SE3       30.13R
INTL FALLS     CLOUDY    12   7  80 CALM      30.15R
6HR MIN TEMP:   4; 6HR MAX TEMP:  12; 6HR PCP:  0.05;

WASKISH        CLOUDY    18  10  73 S6        30.13F WCI   9
BIG FORK       CLOUDY    18   9  68 S10       30.15R WCI   6
LONGVILLE      CLOUDY    21  12  68 S6        30.16S WCI  14
GRAND RAPIDS   CLOUDY    18   7  62 S8        30.15S WCI   7
CRANE LAKE     CLOUDY    10   7  85 CALM      30.17F
ORR            CLOUDY    12   5  73 CALM      30.12S
COOK           CLOUDY    12   7  79 S5        30.15F WCI   4
WALKER         CLOUDY    22  13  68 S6        30.13F WCI  14
$$
MNZ012-019>021-037-310100-
   Northeast Minnesota

CITY           SKY/WX    TMP DP  RH WIND       PRES   REMARKS
DULUTH         MOCLDY    15   3  59 S10       30.17F WCI   2
6HR MIN TEMP:  10; 6HR MAX TEMP:  15;

ELY            LGT SNOW  12   9  85 S5        30.15F WCI   4
HIBBING        CLOUDY    16   3  56 S7        30.16S WCI   6
EVELETH        FAIR      16   5  62 S7        30.17S WCI   6
DULUTH HARBOR  CLOUDY    18   7  62 S8        30.26F WCI   7
TWO HARBORS    CLOUDY    18   7  62 CALM      30.20F
SILVER BAY     CLOUDY    16   7  67 CALM      30.21F
GRAND MARAIS     N/A     16  10  77 NW3       30.26F
G MARAIS ARPRT LGT SNOW   7   1  78 CALM      30.15F
$$
MNZ029>031-032-039>041-046>048-054>057-064-310100-
   West Central Minnesota

CITY           SKY/WX    TMP DP  RH WIND       PRES   REMARKS
FERGUS FALLS   CLOUDY    27  21  80 SE6       30.18S WCI  20
WHEATON        CLEAR     30  27  86 SW5       30.16S WCI  25
MORRIS         CLEAR     28  25  86 S8        30.15R WCI  20
ALEXANDRIA     CLOUDY    25  20  81 S10       30.16S WCI  15
ELBOW LAKE     FAIR      25  23  91 SE8       30.14S WCI  17
WADENA         CLOUDY    21  18  86 S7        30.16F WCI  13
GLENWOOD       PTCLDY    25  21  86 S8        30.16F WCI  16
APPLETON       CLEAR     34  28  80 S9        30.15F WCI  26
BENSON         CLEAR     28  25  86 S8        30.16F WCI  20
ORTONVILLE     CLEAR     34  27  75 S3        30.14S
MADISON        CLEAR     36  30  80 S8        30.16F
WILLMAR        FAIR      28  23  80 S5        30.20S WCI  23
$$
MNZ033>034-036-042>043-049>051-058-059-310100-
   Central Minnesota

CITY           SKY/WX    TMP DP  RH WIND       PRES   REMARKS
ST CLOUD       CLEAR     23  16  74 S7        30.21S WCI  15
6HR MIN TEMP:  19; 6HR MAX TEMP:  26;

SAUK CENTRE    CLOUDY    24  20  83 S8        30.19S WCI  15
PAYNESVILLE    CLEAR     23  20  87 SE8       30.19F WCI  14
AITKIN         MOCLDY    23  12  63 S7        30.17R WCI  15
PINE RIVER     CLOUDY    21  14  73 S5        30.20R WCI  15
BRAINERD       CLOUDY    23  13  65 S9        30.18R WCI  13
STAPLES        CLOUDY    23  16  74 S5        30.17S WCI  17
LONG PRAIRIE   CLOUDY    23  19  86 S9        30.17F WCI  13
LITTLE FALLS   MOCLDY    25  16  68 S6        30.20S WCI  18
LITCHFIELD     CLEAR     27  21  80 CALM      30.21R
BUFFALO        CLEAR     25  17  69 S3        30.23S
MAPLE LAKE     CLEAR     26  20  79 S6        30.22S WCI  19
$$
MNZ037-044-045-052-053-310100-
   East Central Minnesota

CITY           SKY/WX    TMP DP  RH WIND       PRES   REMARKS
PRINCETON      MOCLDY    25  16  68 S9        30.21F WCI  15
MORA           MOCLDY    23  10  58 S6        30.23F WCI  16
CAMBRIDGE      CLOUDY    27  16  63 S7        30.20F WCI  19
RUSH CITY      CLOUDY    22  12  67 SE7       30.23F WCI  13
MOOSE LAKE     CLOUDY    19   9  63 S5        30.18F WCI  13
HINCKLEY       CLOUDY    21  10  63 SE9       30.21F WCI  11
CLOQUET        CLOUDY    14   3  62 SE6       30.18F WCI   5
MCGREGOR       CLOUDY    21  12  68 S8        30.18S WCI  12
$$
MNZ071>073-080-081-089-090-097-098-310100-
   Southwest Minnesota

CITY           SKY/WX    TMP DP  RH WIND       PRES   REMARKS
MONTEVIDEO     CLEAR     32  28  86 SW10      30.18F WCI  24
GRANITE FALLS  CLEAR     32  28  84 S10       30.20F WCI  23
CANBY          CLEAR     34  29  81 SW7       30.17S WCI  28
MARSHALL       CLEAR     32  25  74 SW7       30.20R WCI  26
REDWOOD FALLS  CLEAR     31  25  78 S10       30.20S WCI  22
OLIVIA         CLEAR     28  25  86 S7        30.20S WCI  21
PIPESTONE      CLEAR     32  28  86 SW13      30.17F WCI  22
WINDOM         CLEAR     30  27  86 S14G20    30.20F WCI  20
WORTHINGTON    CLEAR     30  25  80 S12       30.21F WCI  21
JACKSON        CLEAR     32  27  80 S15       30.22F WCI  22
TRACY          CLEAR     33  28  81 SW24G32   30.15F WCI  20
SLAYTON        CLEAR     31  27  86 S16       30.19F WCI  20
$$
MNZ065>067-074>077-082>085-091>093-310100-
   South Central Minnesota

CITY           SKY/WX    TMP DP  RH WIND       PRES   REMARKS
MANKATO        CLEAR     28  19  69 S12G17    30.24F WCI  18
NEW ULM        CLEAR     28  23  80 S16       30.21F WCI  17
ST JAMES       CLEAR     30  25  80 S13       30.23F WCI  20
FAIRMONT       CLEAR     30  21  69 S15       30.23F WCI  19
GLENCOE        CLEAR     28  23  80 S7        30.21F WCI  21
FARIBAULT      CLEAR     27  19  74 S9        30.25F WCI  17
OWATONNA       CLEAR     27  18  69 S9        30.26F WCI  17
WASECA         CLEAR     28  21  74 S14       30.27F WCI  17
ALBERT LEA     CLEAR     27  19  74 S9        30.28F WCI  17
$$
MNZ078>079-086>088-094>096-310100-
   Southeast Minnesota

CITY           SKY/WX    TMP DP  RH WIND       PRES   REMARKS
ROCHESTER      PTCLDY    22  13  68 S9        30.29F WCI  12
6HR MIN TEMP:  16; 6HR MAX TEMP:  23;

RED WING       CLEAR     21  12  68 SE7       30.30S WCI  13
STANTON        CLEAR     27  19  71 S7        30.25F WCI  20
DODGE CENTER   PTCLDY    25  19  80 S12       30.27F WCI  14
WINONA         CLEAR     23  10  58 SE6       30.35F WCI  16
AUSTIN         CLEAR     25  18  74 S10       30.29F WCI  15
PRESTON        PTCLDY    21  12  68 S8        30.30F WCI  11
$$
ABBREVIATIONS USED IN REMARKS
   TC - TEMPERATURES IN CELSIUS
  WCI - WIND CHILL INDEX
   HX - HEAT INDEX
  VSB - VISIBILITY
$$



USA.gov is the U.S. government's official web portal to all federal, state and local government web resources and services.